Time,TemperatureF,DewpointF,PressureIn,WindDirection,WindDirectionDegrees,WindSpeedMPH,WindSpeedGustMPH,Humidity,HourlyPrecipIn,Conditions,Clouds,dailyrainin,SoftwareType,DateUTC
2013-10-12 00:00:00,54.9,51.4,30.01,SE,125,0.0,0.0,88,0.00,,,0.00,VWS V14.01,2013-10-12 04:00:00,
2013-10-12 00:01:00,54.7,50.9,30.01,SE,125,0.0,0.0,87,0.00,,,0.00,VWS V14.01,2013-10-12 04:01:00,
2013-10-12 00:06:00,54.3,50.8,30.01,SE,125,0.0,0.0,88,0.00,,,0.00,VWS V14.01,2013-10-12 04:06:00,
2013-10-12 00:11:00,54.0,50.5,30.01,SE,125,0.0,0.0,88,0.00,,,0.00,VWS V14.01,2013-10-12 04:11:00,
2013-10-12 00:16:00,53.7,50.5,30.02,SE,125,0.0,0.0,89,0.00,,,0.00,VWS V14.01,2013-10-12 04:16:00,
2013-10-12 00:21:00,53.4,50.2,30.02,SE,125,0.0,0.0,89,0.00,,,0.00,VWS V14.01,2013-10-12 04:21:00,
2013-10-12 00:26:00,53.3,50.5,30.01,SE,125,0.0,0.0,90,0.00,,,0.00,VWS V14.01,2013-10-12 04:26:00,
2013-10-12 00:30:00,53.3,50.5,30.01,SE,125,0.0,0.0,90,0.00,,,0.00,VWS V14.01,2013-10-12 04:30:00,
2013-10-12 00:31:00,53.0,50.2,30.01,SE,125,0.0,0.0,90,0.00,,,0.00,VWS V14.01,2013-10-12 04:31:00,
2013-10-12 00:36:00,52.9,50.0,30.02,SE,125,0.0,0.0,90,0.00,,,0.00,VWS V14.01,2013-10-12 04:36:00,
2013-10-12 00:41:00,52.8,50.2,30.02,SE,125,0.0,0.0,91,0.00,,,0.00,VWS V14.01,2013-10-12 04:41:00,
2013-10-12 00:46:00,52.6,50.0,30.02,SE,125,0.0,0.0,91,0.00,,,0.00,VWS V14.01,2013-10-12 04:46:00,
2013-10-12 00:51:00,52.4,49.8,30.02,SE,126,0.0,0.0,91,0.00,,,0.00,VWS V14.01,2013-10-12 04:51:00,
2013-10-12 00:56:00,52.1,49.6,30.02,SE,126,0.0,0.0,91,0.00,,,0.00,VWS V14.01,2013-10-12 04:56:00,
2013-10-12 01:00:00,52.1,49.6,30.02,SE,125,0.0,0.0,91,0.00,,,0.00,VWS V14.01,2013-10-12 05:00:00,
2013-10-12 01:01:00,52.1,49.8,30.02,SE,126,0.0,0.0,92,0.00,,,0.00,VWS V14.01,2013-10-12 05:01:00,
2013-10-12 01:06:00,52.1,49.8,30.02,SE,125,0.0,0.0,92,0.00,,,0.00,VWS V14.01,2013-10-12 05:06:00,
2013-10-12 01:11:00,51.9,49.7,30.02,SE,125,0.0,0.0,92,0.00,,,0.00,VWS V14.01,2013-10-12 05:11:00,
2013-10-12 01:16:00,51.8,49.5,30.02,SE,125,0.0,0.0,92,0.00,,,0.00,VWS V14.01,2013-10-12 05:16:00,
2013-10-12 01:21:00,51.6,49.7,30.02,SE,125,0.0,0.0,93,0.00,,,0.00,VWS V14.01,2013-10-12 05:21:00,
2013-10-12 01:26:00,51.3,49.3,30.02,SE,125,0.0,0.0,93,0.00,,,0.00,VWS V14.01,2013-10-12 05:26:00,
2013-10-12 01:30:00,51.4,49.5,30.02,SE,125,0.0,0.0,93,0.00,,,0.00,VWS V14.01,2013-10-12 05:30:00,
2013-10-12 01:31:00,51.6,49.9,30.02,SE,125,0.0,0.0,94,0.00,,,0.00,VWS V14.01,2013-10-12 05:31:00,
2013-10-12 01:36:00,51.7,50.0,30.02,SE,125,0.0,0.0,94,0.00,,,0.00,VWS V14.01,2013-10-12 05:36:00,
2013-10-12 01:41:00,51.9,50.2,30.02,ENE,77,0.0,0.0,94,0.00,,,0.00,VWS V14.01,2013-10-12 05:41:00,
2013-10-12 01:46:00,52.0,50.0,30.02,ENE,77,0.0,0.0,93,0.00,,,0.00,VWS V14.01,2013-10-12 05:46:00,
2013-10-12 01:51:00,52.1,50.1,30.02,ENE,76,0.0,0.0,93,0.00,,,0.00,VWS V14.01,2013-10-12 05:51:00,
2013-10-12 01:56:00,52.2,50.2,30.02,ENE,76,0.0,0.0,93,0.00,,,0.00,VWS V14.01,2013-10-12 05:56:00,
2013-10-12 02:00:00,52.2,50.2,30.02,ENE,76,0.0,0.0,93,0.00,,,0.00,VWS V14.01,2013-10-12 06:00:00,
2013-10-12 02:01:00,52.3,50.3,30.02,ENE,76,0.0,0.0,93,0.00,,,0.00,VWS V14.01,2013-10-12 06:01:00,
2013-10-12 02:06:00,52.2,50.0,30.02,ENE,76,0.0,0.0,92,0.00,,,0.00,VWS V14.01,2013-10-12 06:06:00,
2013-10-12 02:11:00,52.2,50.2,30.02,ENE,77,0.0,0.0,93,0.00,,,0.00,VWS V14.01,2013-10-12 06:11:00,
2013-10-12 02:16:00,52.1,49.8,30.02,ENE,77,0.0,0.0,92,0.00,,,0.00,VWS V14.01,2013-10-12 06:16:00,
2013-10-12 02:21:00,51.9,49.7,30.02,ENE,76,0.0,0.0,92,0.00,,,0.00,VWS V14.01,2013-10-12 06:21:00,
2013-10-12 02:26:00,52.0,50.0,30.02,ENE,76,0.0,0.0,93,0.00,,,0.00,VWS V14.01,2013-10-12 06:26:00,
2013-10-12 02:30:00,51.9,49.9,30.02,ENE,77,0.0,0.0,93,0.00,,,0.00,VWS V14.01,2013-10-12 06:30:00,
2013-10-12 02:31:00,52.0,50.0,30.02,ENE,77,0.0,0.0,93,0.00,,,0.00,VWS V14.01,2013-10-12 06:31:00,
2013-10-12 02:36:00,51.7,49.5,30.02,ENE,76,0.0,0.0,92,0.00,,,0.00,VWS V14.01,2013-10-12 06:36:00,
2013-10-12 02:41:00,51.6,49.7,30.02,ENE,77,0.0,0.0,93,0.00,,,0.00,VWS V14.01,2013-10-12 06:41:00,
2013-10-12 02:46:00,51.6,49.7,30.02,ENE,76,0.0,0.0,93,0.00,,,0.00,VWS V14.01,2013-10-12 06:46:00,
2013-10-12 02:51:00,51.5,49.5,30.02,ENE,77,0.0,0.0,93,0.00,,,0.00,VWS V14.01,2013-10-12 06:51:00,
2013-10-12 02:56:00,51.6,49.9,30.02,ENE,76,0.0,0.0,94,0.00,,,0.00,VWS V14.01,2013-10-12 06:56:00,
2013-10-12 03:00:00,51.6,49.7,30.02,ENE,76,0.0,0.0,93,0.00,,,0.00,VWS V14.01,2013-10-12 07:00:00,
2013-10-12 03:01:00,51.6,49.7,30.02,ENE,76,0.0,0.0,93,0.00,,,0.00,VWS V14.01,2013-10-12 07:01:00,
2013-10-12 03:06:00,51.6,49.7,30.02,ENE,77,0.0,0.0,93,0.00,,,0.00,VWS V14.01,2013-10-12 07:06:00,
2013-10-12 03:11:00,51.4,49.5,30.02,ENE,76,0.0,0.0,93,0.00,,,0.00,VWS V14.01,2013-10-12 07:11:00,
2013-10-12 03:16:00,51.2,49.2,30.02,ENE,76,0.0,0.0,93,0.00,,,0.00,VWS V14.01,2013-10-12 07:16:00,
2013-10-12 03:21:00,51.0,49.0,30.02,ENE,76,0.0,0.0,93,0.00,,,0.00,VWS V14.01,2013-10-12 07:21:00,
2013-10-12 03:26:00,50.9,49.0,30.02,ENE,76,0.0,0.0,93,0.00,,,0.00,VWS V14.01,2013-10-12 07:26:00,
2013-10-12 03:30:00,50.9,49.0,30.02,ENE,76,0.0,0.0,93,0.00,,,0.00,VWS V14.01,2013-10-12 07:30:00,
2013-10-12 03:31:00,51.0,49.3,30.02,ENE,76,0.0,0.0,94,0.00,,,0.00,VWS V14.01,2013-10-12 07:31:00,
2013-10-12 03:36:00,51.0,49.3,30.02,ENE,76,0.0,0.0,94,0.00,,,0.00,VWS V14.01,2013-10-12 07:36:00,
2013-10-12 03:41:00,50.9,49.2,30.02,ENE,77,0.0,0.0,94,0.00,,,0.00,VWS V14.01,2013-10-12 07:41:00,
2013-10-12 03:46:00,50.6,48.9,30.02,ENE,76,0.0,0.0,94,0.00,,,0.00,VWS V14.01,2013-10-12 07:46:00,
2013-10-12 03:51:00,50.7,49.0,30.02,ENE,77,0.0,0.0,94,0.00,,,0.00,VWS V14.01,2013-10-12 07:51:00,
2013-10-12 03:56:00,50.4,48.7,30.02,ENE,77,0.0,0.0,94,0.00,,,0.00,VWS V14.01,2013-10-12 07:56:00,
2013-10-12 04:00:00,50.5,48.8,30.02,ENE,76,0.0,0.0,94,0.00,,,0.00,VWS V14.01,2013-10-12 08:00:00,
2013-10-12 04:01:00,50.3,48.9,30.02,ENE,76,0.0,0.0,95,0.00,,,0.00,VWS V14.01,2013-10-12 08:01:00,
2013-10-12 04:06:00,50.5,49.1,30.02,ENE,77,0.0,0.0,95,0.00,,,0.00,VWS V14.01,2013-10-12 08:06:00,
2013-10-12 04:11:00,50.5,49.1,30.02,ENE,77,0.0,0.0,95,0.00,,,0.00,VWS V14.01,2013-10-12 08:11:00,
2013-10-12 04:16:00,50.6,49.2,30.02,ENE,76,0.0,0.0,95,0.00,,,0.00,VWS V14.01,2013-10-12 08:16:00,
2013-10-12 04:21:00,50.7,49.3,30.02,ENE,76,0.0,0.0,95,0.00,,,0.00,VWS V14.01,2013-10-12 08:21:00,
2013-10-12 04:26:00,50.9,49.5,30.02,ENE,76,0.0,0.0,95,0.00,,,0.00,VWS V14.01,2013-10-12 08:26:00,
2013-10-12 04:30:00,50.9,49.5,30.02,ENE,77,0.0,0.0,95,0.00,,,0.00,VWS V14.01,2013-10-12 08:30:00,
2013-10-12 04:31:00,50.9,49.5,30.02,ENE,76,0.0,0.0,95,0.00,,,0.00,VWS V14.01,2013-10-12 08:31:00,
2013-10-12 04:36:00,50.9,49.5,30.02,ENE,77,0.0,0.0,95,0.00,,,0.00,VWS V14.01,2013-10-12 08:36:00,
2013-10-12 04:41:00,50.8,49.1,30.02,ENE,76,0.0,0.0,94,0.00,,,0.00,VWS V14.01,2013-10-12 08:41:00,
2013-10-12 04:46:00,50.5,48.8,30.02,ENE,77,0.0,0.0,94,0.00,,,0.00,VWS V14.01,2013-10-12 08:46:00,
2013-10-12 04:51:00,50.4,48.7,30.02,ENE,77,0.0,0.0,94,0.00,,,0.00,VWS V14.01,2013-10-12 08:51:00,
2013-10-12 04:56:00,50.3,48.6,30.02,ENE,76,0.0,0.0,94,0.00,,,0.00,VWS V14.01,2013-10-12 08:56:00,
2013-10-12 05:00:00,50.3,48.6,30.02,ENE,77,0.0,0.0,94,0.00,,,0.00,VWS V14.01,2013-10-12 09:00:00,
2013-10-12 05:05:00,49.8,48.4,30.02,ENE,76,0.0,0.0,95,0.00,,,0.00,VWS V14.01,2013-10-12 09:05:00,
2013-10-12 05:10:00,49.8,48.4,30.02,ENE,77,0.0,0.0,95,0.00,,,0.00,VWS V14.01,2013-10-12 09:10:00,
2013-10-12 05:16:00,49.9,49.0,30.02,ENE,76,0.0,0.0,95,0.00,,,0.00,weatherlink.com 1.10,2013-10-12 09:16:00,
2013-10-12 05:21:00,49.7,48.3,30.02,ENE,77,0.0,0.0,95,0.00,,,0.00,VWS V14.01,2013-10-12 09:21:00,
2013-10-12 05:27:00,49.8,48.4,30.02,ENE,76,0.0,0.0,95,0.00,,,0.00,VWS V14.01,2013-10-12 09:27:00,
2013-10-12 05:32:00,49.5,48.1,30.02,ENE,76,0.0,0.0,95,0.00,,,0.00,VWS V14.01,2013-10-12 09:32:00,
2013-10-12 05:37:00,49.7,48.6,30.02,ENE,77,0.0,0.0,96,0.00,,,0.00,VWS V14.01,2013-10-12 09:37:00,
2013-10-12 05:42:00,49.9,48.8,30.02,ENE,77,0.0,0.0,96,0.00,,,0.00,VWS V14.01,2013-10-12 09:42:00,
2013-10-12 05:47:00,50.0,48.9,30.02,ENE,77,0.0,0.0,96,0.00,,,0.00,VWS V14.01,2013-10-12 09:47:00,
2013-10-12 05:52:00,49.7,48.3,30.02,ENE,77,0.0,0.0,95,0.00,,,0.00,VWS V14.01,2013-10-12 09:52:00,
2013-10-12 05:57:00,49.6,48.2,30.02,ENE,77,0.0,0.0,95,0.00,,,0.00,VWS V14.01,2013-10-12 09:57:00,
2013-10-12 06:02:00,49.5,48.1,30.02,ENE,77,0.0,0.0,95,0.00,,,0.00,VWS V14.01,2013-10-12 10:02:00,
2013-10-12 06:07:00,49.5,48.4,30.02,ENE,77,0.0,0.0,96,0.00,,,0.00,VWS V14.01,2013-10-12 10:07:00,
2013-10-12 06:12:00,49.6,48.5,30.02,ENE,76,0.0,0.0,96,0.00,,,0.00,VWS V14.01,2013-10-12 10:12:00,
2013-10-12 06:17:00,49.4,48.0,30.02,ENE,76,0.0,0.0,95,0.00,,,0.00,VWS V14.01,2013-10-12 10:17:00,
2013-10-12 06:22:00,49.3,48.2,30.03,ENE,77,0.0,0.0,96,0.00,,,0.00,VWS V14.01,2013-10-12 10:22:00,
2013-10-12 06:27:00,49.0,47.9,30.03,ENE,76,0.0,0.0,96,0.00,,,0.00,VWS V14.01,2013-10-12 10:27:00,
2013-10-12 06:32:00,48.7,47.3,30.03,ENE,76,0.0,0.0,95,0.00,,,0.00,VWS V14.01,2013-10-12 10:32:00,
2013-10-12 06:37:00,48.6,47.5,30.03,ENE,76,0.0,0.0,96,0.00,,,0.00,VWS V14.01,2013-10-12 10:37:00,
2013-10-12 06:42:00,48.5,47.4,30.03,ENE,77,0.0,0.0,96,0.00,,,0.00,VWS V14.01,2013-10-12 10:42:00,
2013-10-12 06:47:00,48.6,47.5,30.03,ENE,76,0.0,0.0,96,0.00,,,0.00,VWS V14.01,2013-10-12 10:47:00,
2013-10-12 06:52:00,48.5,47.4,30.03,ENE,76,0.0,0.0,96,0.00,,,0.00,VWS V14.01,2013-10-12 10:52:00,
2013-10-12 06:57:00,48.5,47.4,30.03,ENE,76,0.0,0.0,96,0.00,,,0.00,VWS V14.01,2013-10-12 10:57:00,
2013-10-12 07:02:00,48.5,47.4,30.03,ENE,76,0.0,0.0,96,0.00,,,0.00,VWS V14.01,2013-10-12 11:02:00,
2013-10-12 07:07:00,48.5,47.4,30.03,ENE,76,0.0,0.0,96,0.00,,,0.00,VWS V14.01,2013-10-12 11:07:00,
2013-10-12 07:12:00,48.6,47.8,30.03,ENE,76,0.0,0.0,97,0.00,,,0.00,VWS V14.01,2013-10-12 11:12:00,
2013-10-12 07:17:00,48.6,47.8,30.03,ENE,77,0.0,0.0,97,0.00,,,0.00,VWS V14.01,2013-10-12 11:17:00,
2013-10-12 07:22:00,48.4,47.6,30.03,ENE,76,0.0,0.0,97,0.00,,,0.00,VWS V14.01,2013-10-12 11:22:00,
2013-10-12 07:27:00,48.3,47.5,30.03,ENE,76,0.0,0.0,97,0.00,,,0.00,VWS V14.01,2013-10-12 11:27:00,
2013-10-12 07:32:00,48.0,46.9,30.03,ENE,76,0.0,0.0,96,0.00,,,0.00,VWS V14.01,2013-10-12 11:32:00,
2013-10-12 07:37:00,47.9,46.8,30.03,ENE,76,0.0,0.0,96,0.00,,,0.00,VWS V14.01,2013-10-12 11:37:00,
2013-10-12 07:42:00,47.7,46.6,30.03,ENE,77,0.0,0.0,96,0.00,,,0.00,VWS V14.01,2013-10-12 11:42:00,
2013-10-12 07:47:00,47.6,46.5,30.03,ENE,77,0.0,0.0,96,0.00,,,0.00,VWS V14.01,2013-10-12 11:47:00,
2013-10-12 07:52:00,48.3,47.5,30.03,ESE,112,0.0,0.0,97,0.00,,,0.00,VWS V14.01,2013-10-12 11:52:00,
2013-10-12 07:57:00,48.5,47.7,30.03,ESE,112,0.0,0.0,97,0.00,,,0.00,VWS V14.01,2013-10-12 11:57:00,
2013-10-12 08:02:00,49.4,48.9,30.03,SE,133,0.0,0.0,98,0.00,,,0.00,VWS V14.01,2013-10-12 12:02:00,
2013-10-12 08:07:00,49.6,49.1,30.03,SE,132,0.0,0.0,98,0.00,,,0.00,VWS V14.01,2013-10-12 12:07:00,
2013-10-12 08:12:00,49.8,49.0,30.03,SE,132,0.0,0.0,97,0.00,,,0.00,VWS V14.01,2013-10-12 12:12:00,
2013-10-12 08:17:00,50.2,49.4,30.03,SE,130,0.0,0.0,97,0.00,,,0.00,VWS V14.01,2013-10-12 12:17:00,
2013-10-12 08:22:00,50.8,50.0,30.03,SE,133,0.0,0.0,97,0.00,,,0.00,VWS V14.01,2013-10-12 12:22:00,
2013-10-12 08:27:00,51.4,50.6,30.04,SE,133,0.0,0.0,97,0.00,,,0.00,VWS V14.01,2013-10-12 12:27:00,
2013-10-12 08:32:00,51.8,50.7,30.04,SE,128,0.0,0.0,96,0.00,,,0.00,VWS V14.01,2013-10-12 12:32:00,
2013-10-12 08:37:00,52.6,50.9,30.04,ESE,120,0.0,2.0,94,0.00,,,0.00,VWS V14.01,2013-10-12 12:37:00,
2013-10-12 08:42:00,53.3,51.0,30.04,SE,142,0.0,2.0,92,0.00,,,0.00,VWS V14.01,2013-10-12 12:42:00,
2013-10-12 08:47:00,53.9,51.0,30.04,SSE,150,1.0,3.0,90,0.00,,,0.00,VWS V14.01,2013-10-12 12:47:00,
2013-10-12 08:52:00,54.6,51.4,30.04,SE,142,1.0,3.0,89,0.00,,,0.00,VWS V14.01,2013-10-12 12:52:00,
2013-10-12 08:57:00,55.3,51.5,30.04,SSE,162,2.0,3.0,87,0.00,,,0.00,VWS V14.01,2013-10-12 12:57:00,
2013-10-12 09:02:00,55.7,51.6,30.04,SE,142,2.0,3.0,86,0.00,,,0.00,VWS V14.01,2013-10-12 13:02:00,
2013-10-12 09:07:00,56.1,51.7,30.04,SE,145,1.0,3.0,85,0.00,,,0.00,VWS V14.01,2013-10-12 13:07:00,
2013-10-12 09:12:00,56.6,51.8,30.04,SE,139,4.0,4.0,84,0.00,,,0.00,VWS V14.01,2013-10-12 13:12:00,
2013-10-12 09:17:00,57.0,51.9,30.05,SSE,167,2.0,4.0,83,0.00,,,0.00,VWS V14.01,2013-10-12 13:17:00,
2013-10-12 09:22:00,57.5,52.4,30.05,SSW,208,0.0,4.0,83,0.00,,,0.00,VWS V14.01,2013-10-12 13:22:00,
2013-10-12 09:27:00,57.9,52.8,30.05,SE,136,2.0,2.0,83,0.00,,,0.00,VWS V14.01,2013-10-12 13:27:00,
2013-10-12 09:32:00,58.4,52.9,30.05,SE,145,1.0,3.0,82,0.00,,,0.00,VWS V14.01,2013-10-12 13:32:00,
2013-10-12 09:37:00,59.3,53.1,30.05,SSE,154,2.0,3.0,80,0.00,,,0.00,VWS V14.01,2013-10-12 13:37:00,
2013-10-12 09:42:00,60.2,53.3,30.05,SE,139,1.0,4.0,78,0.00,,,0.00,VWS V14.01,2013-10-12 13:42:00,
2013-10-12 09:47:00,61.2,53.9,30.04,SE,136,3.0,4.0,77,0.00,,,0.00,VWS V14.01,2013-10-12 13:47:00,
2013-10-12 09:52:00,62.0,54.4,30.05,SE,140,0.0,4.0,76,0.00,,,0.00,VWS V14.01,2013-10-12 13:52:00,
2013-10-12 09:57:00,63.0,54.6,30.04,SE,125,0.0,0.0,74,0.00,,,0.00,VWS V14.01,2013-10-12 13:57:00,
2013-10-12 10:02:00,63.7,54.9,30.05,SSE,156,0.0,0.0,73,0.00,,,0.00,VWS V14.01,2013-10-12 14:02:00,
2013-10-12 10:06:00,64.7,55.1,30.05,SSE,149,2.0,2.0,71,0.00,,,0.00,VWS V14.01,2013-10-12 14:06:00,
2013-10-12 10:11:00,65.2,54.8,30.05,SE,131,3.0,4.0,69,0.00,,,0.00,VWS V14.01,2013-10-12 14:11:00,
2013-10-12 10:17:00,65.6,55.6,30.05,SE,139,3.0,4.0,70,0.00,,,0.00,VWS V14.01,2013-10-12 14:17:00,
2013-10-12 10:21:00,66.1,54.8,30.05,SSE,158,3.0,4.0,67,0.00,,,0.00,VWS V14.01,2013-10-12 14:21:00,
2013-10-12 10:26:00,66.5,55.2,30.04,SSE,155,4.0,5.0,67,0.00,,,0.00,VWS V14.01,2013-10-12 14:26:00,
2013-10-12 10:31:00,66.6,54.9,30.04,SE,142,3.0,6.0,66,0.00,,,0.00,VWS V14.01,2013-10-12 14:31:00,
2013-10-12 10:36:00,67.0,55.3,30.04,SSE,153,2.0,6.0,66,0.00,,,0.00,VWS V14.01,2013-10-12 14:36:00,
2013-10-12 10:41:00,67.5,55.3,30.04,SSE,148,1.0,6.0,65,0.00,,,0.00,VWS V14.01,2013-10-12 14:41:00,
2013-10-12 10:46:00,67.8,55.2,30.04,SE,140,1.0,8.0,64,0.00,,,0.00,VWS V14.01,2013-10-12 14:46:00,
2013-10-12 10:51:00,68.4,55.3,30.04,South,170,1.0,8.0,63,0.00,,,0.00,VWS V14.01,2013-10-12 14:51:00,
2013-10-12 10:56:00,68.8,55.7,30.04,South,170,1.0,4.0,63,0.00,,,0.00,VWS V14.01,2013-10-12 14:56:00,
2013-10-12 11:01:00,69.0,55.0,30.04,SE,139,4.0,7.0,61,0.00,,,0.00,VWS V14.01,2013-10-12 15:01:00,
2013-10-12 11:06:00,69.2,55.2,30.04,SSW,197,2.0,7.0,61,0.00,,,0.00,VWS V14.01,2013-10-12 15:06:00,
2013-10-12 11:11:00,69.9,56.3,30.04,SE,138,5.0,7.0,62,0.00,,,0.00,VWS V14.01,2013-10-12 15:11:00,
2013-10-12 11:16:00,70.2,56.1,30.03,South,183,1.0,7.0,61,0.00,,,0.00,VWS V14.01,2013-10-12 15:16:00,
2013-10-12 11:21:00,70.5,56.4,30.03,SE,145,1.0,7.0,61,0.00,,,0.00,VWS V14.01,2013-10-12 15:21:00,
2013-10-12 11:26:00,71.0,56.4,30.04,SSE,150,2.0,4.0,60,0.00,,,0.00,VWS V14.01,2013-10-12 15:26:00,
2013-10-12 11:31:00,71.0,56.4,30.03,SSE,155,2.0,6.0,60,0.00,,,0.00,VWS V14.01,2013-10-12 15:31:00,
2013-10-12 11:36:00,71.6,57.0,30.03,SSE,166,3.0,6.0,60,0.00,,,0.00,VWS V14.01,2013-10-12 15:36:00,
2013-10-12 11:41:00,71.8,57.6,30.03,SSW,212,0.0,6.0,61,0.00,,,0.00,VWS V14.01,2013-10-12 15:41:00,
2013-10-12 11:46:00,72.4,57.3,30.03,ESE,107,0.0,6.0,59,0.00,,,0.00,VWS V14.01,2013-10-12 15:46:00,
2013-10-12 11:51:00,73.1,57.5,30.04,SE,135,1.0,6.0,58,0.00,,,0.00,VWS V14.01,2013-10-12 15:51:00,
2013-10-12 11:56:00,73.4,57.3,30.04,South,184,4.0,6.0,57,0.00,,,0.00,VWS V14.01,2013-10-12 15:56:00,
2013-10-12 12:01:00,73.5,57.3,30.04,SE,142,3.0,6.0,57,0.00,,,0.00,VWS V14.01,2013-10-12 16:01:00,
2013-10-12 12:06:00,73.7,57.0,30.04,SE,135,3.0,6.0,56,0.00,,,0.00,VWS V14.01,2013-10-12 16:06:00,
2013-10-12 12:11:00,74.2,57.5,30.04,SSE,152,3.0,6.0,56,0.00,,,0.00,VWS V14.01,2013-10-12 16:11:00,
2013-10-12 12:16:00,74.6,57.9,30.04,SE,142,3.0,6.0,56,0.00,,,0.00,VWS V14.01,2013-10-12 16:16:00,
2013-10-12 12:21:00,74.8,57.6,30.03,SE,139,3.0,6.0,55,0.00,,,0.00,VWS V14.01,2013-10-12 16:21:00,
2013-10-12 12:27:00,75.3,58.5,30.03,SSW,197,3.0,3.0,56,0.00,,,0.00,VWS V14.01,2013-10-12 16:27:00,
2013-10-12 12:32:00,75.7,57.9,30.03,SSE,162,5.0,7.0,54,0.00,,,0.00,VWS V14.01,2013-10-12 16:32:00,
2013-10-12 12:37:00,75.7,57.4,30.03,SSW,193,2.0,7.0,53,0.00,,,0.00,VWS V14.01,2013-10-12 16:37:00,
2013-10-12 12:42:00,76.1,57.2,30.03,SE,125,6.0,7.0,52,0.00,,,0.00,VWS V14.01,2013-10-12 16:42:00,
2013-10-12 12:47:00,76.1,57.2,30.03,SE,128,2.0,9.0,52,0.00,,,0.00,VWS V14.01,2013-10-12 16:47:00,
2013-10-12 12:52:00,76.4,57.5,30.04,SW,218,2.0,9.0,52,0.00,,,0.00,VWS V14.01,2013-10-12 16:52:00,
2013-10-12 12:57:00,76.6,57.1,30.04,SSE,158,2.0,6.0,51,0.00,,,0.00,VWS V14.01,2013-10-12 16:57:00,
2013-10-12 13:02:00,76.9,57.4,30.03,SW,229,2.0,7.0,51,0.00,,,0.00,VWS V14.01,2013-10-12 17:02:00,
2013-10-12 13:07:00,77.6,57.5,30.03,SE,129,5.0,7.0,50,0.00,,,0.00,VWS V14.01,2013-10-12 17:07:00,
2013-10-12 13:12:00,77.8,57.7,30.03,West,276,1.0,7.0,50,0.00,,,0.00,VWS V14.01,2013-10-12 17:12:00,
2013-10-12 13:17:00,78.0,56.2,30.03,SW,232,3.0,8.0,47,0.00,,,0.00,VWS V14.01,2013-10-12 17:17:00,
2013-10-12 13:22:00,78.1,56.8,30.02,South,169,5.0,8.0,48,0.00,,,0.00,VWS V14.01,2013-10-12 17:22:00,
2013-10-12 13:27:00,78.1,56.8,30.02,SSW,200,6.0,6.0,48,0.00,,,0.00,VWS V14.01,2013-10-12 17:27:00,
2013-10-12 13:32:00,78.0,57.3,30.02,ESE,117,7.0,7.0,49,0.00,,,0.00,VWS V14.01,2013-10-12 17:32:00,
2013-10-12 13:37:00,78.2,56.3,30.02,SSE,159,2.0,7.0,47,0.00,,,0.00,VWS V14.01,2013-10-12 17:37:00,
2013-10-12 13:42:00,78.3,57.0,30.02,South,172,2.0,7.0,48,0.00,,,0.00,VWS V14.01,2013-10-12 17:42:00,
2013-10-12 13:47:00,78.6,56.7,30.02,West,273,3.0,8.0,47,0.00,,,0.00,VWS V14.01,2013-10-12 17:47:00,
2013-10-12 13:52:00,79.2,56.7,30.01,South,176,2.0,8.0,46,0.00,,,0.00,VWS V14.01,2013-10-12 17:52:00,
2013-10-12 13:57:00,79.2,56.0,30.01,SE,132,4.0,7.0,45,0.00,,,0.00,VWS V14.01,2013-10-12 17:57:00,
2013-10-12 14:02:00,79.1,56.0,30.01,SE,139,0.0,7.0,45,0.00,,,0.00,VWS V14.01,2013-10-12 18:02:00,
2013-10-12 14:07:00,79.0,55.2,30.01,SSW,207,4.0,9.0,44,0.00,,,0.00,VWS V14.01,2013-10-12 18:07:00,
2013-10-12 14:12:00,79.2,56.7,30.01,SSW,206,2.0,9.0,46,0.00,,,0.00,VWS V14.01,2013-10-12 18:12:00,
2013-10-12 14:17:00,79.2,56.7,30.01,South,181,3.0,9.0,46,0.00,,,0.00,VWS V14.01,2013-10-12 18:17:00,
2013-10-12 14:22:00,79.6,56.4,30.00,SSW,207,3.0,9.0,45,0.00,,,0.00,VWS V14.01,2013-10-12 18:22:00,
2013-10-12 14:26:00,79.2,55.4,30.00,SE,139,4.0,8.0,44,0.00,,,0.00,VWS V14.01,2013-10-12 18:26:00,
2013-10-12 14:31:00,78.6,56.1,30.00,SE,135,7.0,8.0,46,0.00,,,0.00,VWS V14.01,2013-10-12 18:31:00,
2013-10-12 14:36:00,78.5,56.0,30.00,WSW,255,1.0,8.0,46,0.00,,,0.00,VWS V14.01,2013-10-12 18:36:00,
2013-10-12 14:41:00,79.1,57.2,30.00,SW,233,1.0,8.0,47,0.00,,,0.00,VWS V14.01,2013-10-12 18:41:00,
2013-10-12 14:46:00,79.6,57.0,29.99,SSE,159,2.0,8.0,46,0.00,,,0.00,VWS V14.01,2013-10-12 18:46:00,
2013-10-12 14:51:00,80.0,58.0,29.99,SW,225,0.0,8.0,47,0.00,,,0.00,VWS V14.01,2013-10-12 18:51:00,
2013-10-12 14:56:00,80.4,56.5,29.99,SSE,150,3.0,4.0,44,0.00,,,0.00,VWS V14.01,2013-10-12 18:56:00,
2013-10-12 15:01:00,80.3,57.7,29.99,SSW,207,0.0,7.0,46,0.00,,,0.00,VWS V14.01,2013-10-12 19:01:00,
2013-10-12 15:06:00,80.5,57.2,29.99,SSW,210,4.0,4.0,45,0.00,,,0.00,VWS V14.01,2013-10-12 19:06:00,
2013-10-12 15:11:00,79.7,56.5,29.98,SSE,150,3.0,9.0,45,0.00,,,0.00,VWS V14.01,2013-10-12 19:11:00,
2013-10-12 15:16:00,78.8,56.3,29.98,SSW,200,3.0,9.0,46,0.00,,,0.00,VWS V14.01,2013-10-12 19:16:00,
2013-10-12 15:21:00,78.5,56.6,29.98,SSE,166,6.0,9.0,47,0.00,,,0.00,VWS V14.01,2013-10-12 19:21:00,
2013-10-12 15:26:00,78.5,56.6,29.98,SW,229,2.0,6.0,47,0.00,,,0.00,VWS V14.01,2013-10-12 19:26:00,
2013-10-12 15:30:00,78.5,57.2,29.98,SW,233,2.0,9.0,48,0.00,,,0.00,VWS V14.01,2013-10-12 19:30:00,
2013-10-12 15:31:00,78.4,56.5,29.99,SSW,195,3.0,6.0,47,0.00,,,0.00,VWS V14.01,2013-10-12 19:31:00,
2013-10-12 15:36:00,78.3,56.4,29.98,SSW,193,5.0,7.0,47,0.00,,,0.00,VWS V14.01,2013-10-12 19:36:00,
2013-10-12 15:41:00,78.5,57.2,29.99,SSW,203,1.0,7.0,48,0.00,,,0.00,VWS V14.01,2013-10-12 19:41:00,
2013-10-12 15:46:00,78.6,57.3,29.99,SE,142,4.0,7.0,48,0.00,,,0.00,VWS V14.01,2013-10-12 19:46:00,
2013-10-12 15:51:00,78.3,57.0,29.99,SSW,212,1.0,10.0,48,0.00,,,0.00,VWS V14.01,2013-10-12 19:51:00,
2013-10-12 15:56:00,77.9,57.2,29.99,SW,231,2.0,4.0,49,0.00,,,0.00,VWS V14.01,2013-10-12 19:56:00,
2013-10-12 16:00:00,78.0,57.3,29.99,SW,215,4.0,10.0,49,0.00,,,0.00,VWS V14.01,2013-10-12 20:00:00,
2013-10-12 16:01:00,77.6,57.0,29.99,SW,221,1.0,4.0,49,0.00,,,0.00,VWS V14.01,2013-10-12 20:01:00,
2013-10-12 16:06:00,77.5,56.9,29.99,WSW,252,1.0,4.0,49,0.00,,,0.00,VWS V14.01,2013-10-12 20:06:00,
2013-10-12 16:11:00,77.5,58.0,29.99,North,6,0.0,4.0,51,0.00,,,0.00,VWS V14.01,2013-10-12 20:11:00,
2013-10-12 16:16:00,77.7,58.2,29.99,WSW,248,0.0,4.0,51,0.00,,,0.00,VWS V14.01,2013-10-12 20:16:00,
2013-10-12 16:21:00,77.6,57.5,29.99,South,176,2.0,4.0,50,0.00,,,0.00,VWS V14.01,2013-10-12 20:21:00,
2013-10-12 16:26:00,77.3,57.2,29.99,SSE,156,3.0,4.0,50,0.00,,,0.00,VWS V14.01,2013-10-12 20:26:00,
2013-10-12 16:30:00,77.4,57.9,29.99,WNW,285,0.0,4.0,51,0.00,,,0.00,VWS V14.01,2013-10-12 20:30:00,
2013-10-12 16:31:00,77.2,57.1,29.99,WSW,238,0.0,5.0,50,0.00,,,0.00,VWS V14.01,2013-10-12 20:31:00,
2013-10-12 16:36:00,77.0,57.0,29.99,WSW,243,0.0,5.0,50,0.00,,,0.00,VWS V14.01,2013-10-12 20:36:00,
2013-10-12 16:41:00,76.7,57.2,29.99,SW,232,2.0,5.0,51,0.00,,,0.00,VWS V14.01,2013-10-12 20:41:00,
2013-10-12 16:46:00,76.5,58.1,30.00,West,281,0.0,5.0,53,0.00,,,0.00,VWS V14.01,2013-10-12 20:46:00,
2013-10-12 16:51:00,76.3,57.9,30.00,WNW,297,3.0,5.0,53,0.00,,,0.00,VWS V14.01,2013-10-12 20:51:00,
2013-10-12 16:56:00,76.1,58.3,30.00,West,266,0.0,2.0,54,0.00,,,0.00,VWS V14.01,2013-10-12 20:56:00,
2013-10-12 17:00:00,76.1,57.7,30.00,SE,146,0.0,5.0,53,0.00,,,0.00,VWS V14.01,2013-10-12 21:00:00,
2013-10-12 17:05:00,75.6,58.3,30.00,WSW,253,0.0,0.0,55,0.00,,,0.00,VWS V14.01,2013-10-12 21:05:00,
2013-10-12 17:11:00,75.5,57.7,30.00,East,95,1.0,1.0,54,0.00,,,0.00,VWS V14.01,2013-10-12 21:11:00,
2013-10-12 17:18:00,75.4,58.1,30.00,WSW,238,2.0,2.0,55,0.00,,,0.00,VWS V14.01,2013-10-12 21:18:00,
2013-10-12 17:23:00,75.3,58.0,30.00,SW,235,0.0,0.0,55,0.00,,,0.00,VWS V14.01,2013-10-12 21:23:00,
2013-10-12 17:29:00,75.2,58.4,30.00,West,269,0.0,0.0,56,0.00,,,0.00,VWS V14.01,2013-10-12 21:29:00,
2013-10-12 17:34:00,75.0,58.3,30.00,WSW,256,2.0,2.0,56,0.00,,,0.00,VWS V14.01,2013-10-12 21:34:00,
2013-10-12 17:40:00,74.8,58.6,30.00,SW,225,0.0,0.0,57,0.00,,,0.00,VWS V14.01,2013-10-12 21:40:00,
2013-10-12 17:45:00,74.7,58.5,30.00,SSW,197,0.0,0.0,57,0.00,,,0.00,VWS V14.01,2013-10-12 21:45:00,
2013-10-12 17:51:00,74.7,59.0,30.01,West,280,0.0,0.0,58,0.00,,,0.00,VWS V14.01,2013-10-12 21:51:00,
2013-10-12 17:57:00,74.7,59.0,30.01,West,266,0.0,2.0,58,0.00,,,0.00,weatherlink.com 1.10,2013-10-12 21:57:00,
2013-10-12 18:03:00,74.9,59.1,30.01,South,186,0.0,0.0,58,0.00,,,0.00,VWS V14.01,2013-10-12 22:03:00,
2013-10-12 18:08:00,74.8,59.5,30.01,WSW,246,0.0,0.0,59,0.00,,,0.00,VWS V14.01,2013-10-12 22:08:00,
2013-10-12 18:14:00,74.8,59.0,30.01,SSW,210,0.0,3.0,59,0.00,,,0.00,weatherlink.com 1.10,2013-10-12 22:14:00,
2013-10-12 18:19:00,74.7,59.4,30.01,SW,236,0.0,0.0,59,0.00,,,0.00,VWS V14.01,2013-10-12 22:19:00,
2013-10-12 18:24:00,74.5,59.7,30.01,SE,129,0.0,2.0,60,0.00,,,0.00,VWS V14.01,2013-10-12 22:24:00,
2013-10-12 18:29:00,74.3,59.5,30.01,SW,226,0.0,3.0,60,0.00,,,0.00,VWS V14.01,2013-10-12 22:29:00,
2013-10-12 18:34:00,74.0,59.7,30.01,WNW,283,2.0,3.0,61,0.00,,,0.00,VWS V14.01,2013-10-12 22:34:00,
2013-10-12 18:39:00,73.7,59.4,30.01,SE,140,0.0,4.0,61,0.00,,,0.00,VWS V14.01,2013-10-12 22:39:00,
2013-10-12 18:44:00,73.5,59.7,30.01,SW,226,0.0,4.0,62,0.00,,,0.00,VWS V14.01,2013-10-12 22:44:00,
2013-10-12 18:49:00,73.3,59.5,30.01,SW,229,0.0,4.0,62,0.00,,,0.00,VWS V14.01,2013-10-12 22:49:00,
2013-10-12 18:54:00,72.9,59.6,30.01,SW,215,0.0,0.0,63,0.00,,,0.00,VWS V14.01,2013-10-12 22:54:00,
2013-10-12 18:59:00,72.5,59.6,30.01,South,188,0.0,0.0,64,0.00,,,0.00,VWS V14.01,2013-10-12 22:59:00,
2013-10-12 19:04:00,72.3,59.5,30.01,South,177,0.0,2.0,64,0.00,,,0.00,VWS V14.01,2013-10-12 23:04:00,
2013-10-12 19:09:00,71.9,59.5,30.02,South,177,0.0,2.0,65,0.00,,,0.00,VWS V14.01,2013-10-12 23:09:00,
2013-10-12 19:14:00,71.5,59.6,30.01,SSW,210,0.0,2.0,66,0.00,,,0.00,VWS V14.01,2013-10-12 23:14:00,
2013-10-12 19:19:00,71.1,59.6,30.01,SSW,210,0.0,2.0,67,0.00,,,0.00,VWS V14.01,2013-10-12 23:19:00,
2013-10-12 19:24:00,70.6,59.5,30.02,SSW,210,0.0,2.0,68,0.00,,,0.00,VWS V14.01,2013-10-12 23:24:00,
2013-10-12 19:29:00,70.3,59.2,30.02,SSW,210,0.0,0.0,68,0.00,,,0.00,VWS V14.01,2013-10-12 23:29:00,
2013-10-12 19:34:00,70.3,59.7,30.02,South,174,0.0,0.0,69,0.00,,,0.00,VWS V14.01,2013-10-12 23:34:00,
2013-10-12 19:39:00,70.3,59.7,30.02,South,176,0.0,0.0,69,0.00,,,0.00,VWS V14.01,2013-10-12 23:39:00,
2013-10-12 19:44:00,70.3,59.7,30.02,South,175,0.0,0.0,69,0.00,,,0.00,VWS V14.01,2013-10-12 23:44:00,
2013-10-12 19:49:00,70.3,59.7,30.02,South,174,0.0,0.0,69,0.00,,,0.00,VWS V14.01,2013-10-12 23:49:00,
2013-10-12 19:54:00,70.3,59.7,30.03,South,174,0.0,0.0,69,0.00,,,0.00,VWS V14.01,2013-10-12 23:54:00,
2013-10-12 19:59:00,70.2,59.6,30.03,South,175,0.0,0.0,69,0.00,,,0.00,VWS V14.01,2013-10-12 23:59:00,
2013-10-12 20:04:00,70.1,59.9,30.03,SSE,156,0.0,0.0,70,0.00,,,0.00,VWS V14.01,2013-10-13 00:04:00,
2013-10-12 20:09:00,70.1,59.9,30.03,SSE,157,0.0,0.0,70,0.00,,,0.00,VWS V14.01,2013-10-13 00:09:00,
2013-10-12 20:14:00,70.0,59.8,30.03,SSE,157,0.0,0.0,70,0.00,,,0.00,VWS V14.01,2013-10-13 00:14:00,
2013-10-12 20:19:00,69.9,59.7,30.03,SSE,156,0.0,0.0,70,0.00,,,0.00,VWS V14.01,2013-10-13 00:19:00,
2013-10-12 20:24:00,69.9,59.7,30.03,SSE,157,0.0,0.0,70,0.00,,,0.00,VWS V14.01,2013-10-13 00:24:00,
2013-10-12 20:29:00,69.8,60.0,30.03,SSE,157,0.0,0.0,71,0.00,,,0.00,VWS V14.01,2013-10-13 00:29:00,
2013-10-12 20:34:00,69.6,59.8,30.04,SSE,157,0.0,0.0,71,0.00,,,0.00,VWS V14.01,2013-10-13 00:34:00,
2013-10-12 20:39:00,69.4,60.0,30.04,SSE,156,0.0,0.0,72,0.00,,,0.00,VWS V14.01,2013-10-13 00:39:00,
2013-10-12 20:44:00,69.5,60.1,30.04,SSE,159,0.0,1.0,72,0.00,,,0.00,VWS V14.01,2013-10-13 00:44:00,
2013-10-12 20:49:00,69.4,60.0,30.04,SSE,159,0.0,1.0,72,0.00,,,0.00,VWS V14.01,2013-10-13 00:49:00,
2013-10-12 20:54:00,69.2,59.8,30.04,SSE,159,0.0,1.0,72,0.00,,,0.00,VWS V14.01,2013-10-13 00:54:00,
2013-10-12 20:59:00,69.0,60.0,30.04,SSE,159,0.0,0.0,73,0.00,,,0.00,VWS V14.01,2013-10-13 00:59:00,
2013-10-12 21:04:00,68.7,60.1,30.04,SSE,159,0.0,0.0,74,0.00,,,0.00,VWS V14.01,2013-10-13 01:04:00,
2013-10-12 21:09:00,68.4,59.8,30.04,SSE,159,0.0,0.0,74,0.00,,,0.00,VWS V14.01,2013-10-13 01:09:00,
2013-10-12 21:14:00,68.1,59.9,30.04,SSE,159,0.0,0.0,75,0.00,,,0.00,VWS V14.01,2013-10-13 01:14:00,
2013-10-12 21:19:00,68.2,60.0,30.04,SE,145,0.0,0.0,75,0.00,,,0.00,VWS V14.01,2013-10-13 01:19:00,
2013-10-12 21:24:00,68.4,59.8,30.04,SE,145,0.0,0.0,74,0.00,,,0.00,VWS V14.01,2013-10-13 01:24:00,
2013-10-12 21:29:00,68.2,60.0,30.05,SE,145,0.0,0.0,75,0.00,,,0.00,VWS V14.01,2013-10-13 01:29:00,
2013-10-12 21:34:00,67.9,60.1,30.05,SE,145,0.0,0.0,76,0.00,,,0.00,VWS V14.01,2013-10-13 01:34:00,
2013-10-12 21:39:00,67.7,60.2,30.05,SE,145,0.0,0.0,77,0.00,,,0.00,VWS V14.01,2013-10-13 01:39:00,
2013-10-12 21:44:00,67.4,60.0,30.05,SE,145,0.0,0.0,77,0.00,,,0.00,VWS V14.01,2013-10-13 01:44:00,
2013-10-12 21:49:00,67.1,59.7,30.05,SE,145,0.0,0.0,77,0.00,,,0.00,VWS V14.01,2013-10-13 01:49:00,
2013-10-12 21:54:00,67.0,59.9,30.06,SE,146,0.0,0.0,78,0.00,,,0.00,VWS V14.01,2013-10-13 01:54:00,
2013-10-12 21:57:00,66.9,59.8,30.06,SE,145,0.0,0.0,78,0.00,,,0.00,VWS V14.01,2013-10-13 01:57:00,
2013-10-12 22:02:00,67.0,59.9,30.06,SW,223,0.0,0.0,78,0.00,,,0.00,VWS V14.01,2013-10-13 02:02:00,
2013-10-12 22:07:00,67.2,60.1,30.06,SW,224,0.0,0.0,78,0.00,,,0.00,VWS V14.01,2013-10-13 02:07:00,
2013-10-12 22:12:00,67.3,60.2,30.06,SW,224,0.0,0.0,78,0.00,,,0.00,VWS V14.01,2013-10-13 02:12:00,
2013-10-12 22:17:00,67.5,60.4,30.06,WSW,257,0.0,1.0,78,0.00,,,0.00,VWS V14.01,2013-10-13 02:17:00,
2013-10-12 22:22:00,67.7,60.2,30.06,West,263,0.0,1.0,77,0.00,,,0.00,VWS V14.01,2013-10-13 02:22:00,
2013-10-12 22:27:00,67.8,60.3,30.06,NNE,16,0.0,0.0,77,0.00,,,0.00,VWS V14.01,2013-10-13 02:27:00,
2013-10-12 22:32:00,67.8,60.7,30.07,ESE,121,0.0,0.0,78,0.00,,,0.00,VWS V14.01,2013-10-13 02:32:00,
2013-10-12 22:37:00,67.7,60.6,30.07,ESE,120,0.0,0.0,78,0.00,,,0.00,VWS V14.01,2013-10-13 02:37:00,
2013-10-12 22:42:00,67.7,60.6,30.07,ESE,120,0.0,0.0,78,0.00,,,0.00,VWS V14.01,2013-10-13 02:42:00,
2013-10-12 22:47:00,67.6,60.5,30.07,ESE,120,0.0,0.0,78,0.00,,,0.00,VWS V14.01,2013-10-13 02:47:00,
2013-10-12 22:52:00,67.6,60.9,30.07,NNE,18,0.0,0.0,79,0.00,,,0.00,VWS V14.01,2013-10-13 02:52:00,
2013-10-12 22:57:00,67.6,60.9,30.08,NNE,18,0.0,0.0,79,0.00,,,0.00,VWS V14.01,2013-10-13 02:57:00,
2013-10-12 23:02:00,67.5,60.8,30.08,ENE,58,0.0,0.0,79,0.00,,,0.00,VWS V14.01,2013-10-13 03:02:00,
2013-10-12 23:07:00,67.3,60.9,30.08,ENE,58,0.0,0.0,80,0.00,,,0.00,VWS V14.01,2013-10-13 03:07:00,
2013-10-12 23:12:00,67.2,60.8,30.08,ENE,58,0.0,0.0,80,0.00,,,0.00,VWS V14.01,2013-10-13 03:12:00,
2013-10-12 23:17:00,66.9,60.9,30.08,ENE,58,0.0,0.0,81,0.00,,,0.00,VWS V14.01,2013-10-13 03:17:00,
2013-10-12 23:22:00,66.8,60.8,30.08,ENE,58,0.0,0.0,81,0.00,,,0.00,VWS V14.01,2013-10-13 03:22:00,
2013-10-12 23:27:00,66.6,60.6,30.08,ENE,58,0.0,0.0,81,0.00,,,0.00,VWS V14.01,2013-10-13 03:27:00,
2013-10-12 23:32:00,66.4,60.7,30.09,ENE,58,0.0,0.0,82,0.00,,,0.00,VWS V14.01,2013-10-13 03:32:00,
2013-10-12 23:37:00,66.3,61.0,30.09,NW,314,0.0,1.0,83,0.00,,,0.00,VWS V14.01,2013-10-13 03:37:00,
2013-10-12 23:42:00,66.4,61.1,30.09,WNW,298,0.0,1.0,83,0.00,,,0.00,VWS V14.01,2013-10-13 03:42:00,
2013-10-12 23:47:00,66.5,61.2,30.09,WNW,285,0.0,1.0,83,0.00,,,0.00,VWS V14.01,2013-10-13 03:47:00,
2013-10-12 23:52:00,66.5,61.2,30.09,NW,316,1.0,3.0,83,0.00,,,0.00,VWS V14.01,2013-10-13 03:52:00,
2013-10-12 23:57:00,66.4,61.1,30.09,NW,321,0.0,0.0,83,0.00,,,0.00,VWS V14.01,2013-10-13 03:57:00,